DAL21 KLAX-YMML

Flight info

Callsign DAL21
Flight time N/A
Altitude 34000
Route SUMMR2 DINTY DCT 3211N12659W 2959N13144W/N0490F360 2724N13547W 2316N14012W 2132N14137W 1803N14410W 1518N14550W 1040N14927W/N0492F380 0733N15201W 0359N15455W 0045N15734W 0321S16052W 0500S16210W 0645S16333W/N0486F400 1028S16623W 1326S16836W 1752S17206W 2051S17421W 2459S17754W 2900S17733E 3156S17332E 3406S16923E 3510S16623E 3557S16300E 3640S15920E/N0493F430 3651S15748E DCT MOMSY DCT RIMSU Q302 BOOIN
Aircraft A359/H-SDE2E3GHIJ3J4J5LM1ORWXY/LB1D1

Departure

Time 2026-05-05 02:26
Airport Los Angeles International Airport (KLAX)

Arrival

Time N/A
Airport Melbourne Airport (YMML)
Time Latitude Longitude Altitude Speed Heading
2026-05-05 01:53 33.94612 -118.40975 127 ft 0 kts 295°
2026-05-05 02:07 33.94611 -118.40974 127 ft 1 kts 295°
2026-05-05 02:08 33.94605 -118.40958 127 ft 2 kts 295°
2026-05-05 02:08 33.94599 -118.40942 127 ft 2 kts 295°
2026-05-05 02:08 33.94592 -118.40926 126 ft 2 kts 306°
2026-05-05 02:08 33.94582 -118.40913 126 ft 2 kts 321°
2026-05-05 02:09 33.94570 -118.40902 126 ft 2 kts 333°
2026-05-05 02:09 33.94556 -118.40895 126 ft 2 kts 345°
2026-05-05 02:09 33.94546 -118.40892 126 ft 0 kts 354°
2026-05-05 02:09 33.94543 -118.40892 125 ft 0 kts 355°
2026-05-05 02:14 33.94545 -118.40892 125 ft 1 kts 355°
2026-05-05 02:14 33.94556 -118.40894 126 ft 1 kts 354°
2026-05-05 02:15 33.94577 -118.40897 126 ft 8 kts 352°
2026-05-05 02:15 33.94679 -118.40912 126 ft 14 kts 351°
2026-05-05 02:15 33.94735 -118.40994 128 ft 13 kts 275°
2026-05-05 02:15 33.94731 -118.41105 128 ft 13 kts 263°
2026-05-05 02:16 33.94709 -118.41218 128 ft 14 kts 255°
2026-05-05 02:16 33.94681 -118.41339 125 ft 15 kts 231°
2026-05-05 02:16 33.94574 -118.41367 125 ft 16 kts 174°
2026-05-05 02:16 33.94456 -118.41350 125 ft 17 kts 174°
2026-05-05 02:17 33.94331 -118.41332 124 ft 18 kts 173°
2026-05-05 02:17 33.94201 -118.41314 125 ft 19 kts 173°
2026-05-05 02:17 33.94068 -118.41295 126 ft 19 kts 174°
2026-05-05 02:17 33.93946 -118.41280 129 ft 15 kts 173°
2026-05-05 02:18 33.93854 -118.41266 131 ft 12 kts 173°
2026-05-05 02:18 33.93776 -118.41228 131 ft 12 kts 126°
2026-05-05 02:18 33.93764 -118.41123 131 ft 13 kts 85°
2026-05-05 02:18 33.93775 -118.41008 131 ft 14 kts 83°
2026-05-05 02:19 33.93789 -118.40882 131 ft 16 kts 83°
2026-05-05 02:19 33.93803 -118.40739 131 ft 18 kts 83°
2026-05-05 02:19 33.93821 -118.40578 129 ft 21 kts 83°
2026-05-05 02:19 33.93838 -118.40408 126 ft 20 kts 84°
2026-05-05 02:20 33.93855 -118.40237 125 ft 20 kts 84°
2026-05-05 02:20 33.93873 -118.40060 122 ft 22 kts 83°
2026-05-05 02:20 33.93892 -118.39871 119 ft 23 kts 84°
2026-05-05 02:20 33.93912 -118.39667 115 ft 25 kts 83°
2026-05-05 02:21 33.93932 -118.39468 114 ft 22 kts 84°
2026-05-05 02:21 33.93952 -118.39273 112 ft 22 kts 83°
2026-05-05 02:21 33.93972 -118.39087 110 ft 23 kts 83°
2026-05-05 02:21 33.93992 -118.38890 108 ft 23 kts 83°
2026-05-05 02:22 33.94012 -118.38689 108 ft 24 kts 83°
2026-05-05 02:22 33.94033 -118.38482 108 ft 25 kts 84°
2026-05-05 02:22 33.94053 -118.38280 105 ft 24 kts 83°
2026-05-05 02:22 33.94070 -118.38129 105 ft 11 kts 82°
2026-05-05 02:23 33.94074 -118.38068 105 ft 0 kts 97°
2026-05-05 02:24 33.94072 -118.38057 105 ft 4 kts 104°
2026-05-05 02:24 33.94041 -118.38013 105 ft 8 kts 155°
2026-05-05 02:24 33.93994 -118.38025 105 ft 7 kts 233°
2026-05-05 02:24 33.93979 -118.38071 105 ft 3 kts 259°
2026-05-05 02:25 33.93979 -118.38074 105 ft 0 kts 259°
2026-05-05 02:25 33.93967 -118.38197 105 ft 41 kts 263°
2026-05-05 02:25 33.93929 -118.38563 109 ft 87 kts 263°
2026-05-05 02:26 33.93830 -118.39532 116 ft 145 kts 264°
2026-05-05 02:26 33.93684 -118.40954 189 ft 188 kts 262°
2026-05-05 02:26 33.93516 -118.42511 854 ft 190 kts 262°
2026-05-05 02:26 33.93357 -118.44035 1779 ft 181 kts 262°
2026-05-05 02:27 33.93203 -118.45515 2293 ft 183 kts 262°
2026-05-05 02:27 33.93059 -118.47071 2570 ft 195 kts 264°
2026-05-05 02:27 33.92920 -118.48746 2850 ft 208 kts 264°
2026-05-05 02:27 33.92774 -118.50544 3115 ft 223 kts 264°
2026-05-05 02:28 33.92617 -118.52469 3422 ft 238 kts 264°
2026-05-05 02:28 33.92452 -118.54502 3746 ft 253 kts 264°
2026-05-05 02:28 33.92277 -118.56637 4267 ft 259 kts 264°
2026-05-05 02:28 33.92100 -118.58785 4927 ft 261 kts 264°
2026-05-05 02:29 33.91919 -118.60972 5566 ft 264 kts 264°
2026-05-05 02:29 33.91777 -118.63171 6195 ft 267 kts 267°
2026-05-05 02:29 33.91752 -118.65395 6843 ft 268 kts 268°
2026-05-05 02:29 33.91745 -118.67624 7512 ft 269 kts 269°
2026-05-05 02:30 33.91739 -118.69858 8142 ft 271 kts 269°
2026-05-05 02:30 33.91733 -118.72131 8744 ft 274 kts 269°
2026-05-05 02:30 33.91728 -118.74420 9375 ft 275 kts 268°
2026-05-05 02:30 33.91719 -118.76733 10014 ft 277 kts 268°
2026-05-05 02:31 33.91707 -118.79052 10450 ft 285 kts 269°
2026-05-05 02:31 33.91695 -118.81481 10719 ft 299 kts 269°
2026-05-05 02:31 33.91710 -118.84064 10986 ft 313 kts 271°
2026-05-05 02:31 33.91785 -118.86723 11267 ft 326 kts 271°
2026-05-05 02:32 33.91872 -118.89494 11511 ft 339 kts 271°
2026-05-05 02:32 33.91959 -118.92380 11772 ft 351 kts 271°
2026-05-05 02:32 33.92078 -118.96352 12089 ft 368 kts 271°
2026-05-05 02:32 33.92170 -118.98443 12237 ft 376 kts 275°
2026-05-05 02:33 33.92694 -119.01526 12655 ft 382 kts 286°
2026-05-05 02:33 33.93716 -119.04493 13221 ft 385 kts 297°
2026-05-05 02:33 33.95079 -119.07264 13736 ft 388 kts 300°
2026-05-05 02:33 33.96523 -119.10023 14224 ft 391 kts 301°
2026-05-05 02:34 33.97975 -119.12792 14693 ft 394 kts 300°
2026-05-05 02:34 33.99450 -119.15571 15169 ft 397 kts 303°
2026-05-05 02:34 34.01189 -119.18188 15624 ft 402 kts 310°
2026-05-05 02:34 34.03244 -119.20521 16093 ft 407 kts 319°
2026-05-05 02:35 34.05489 -119.22555 16522 ft 411 kts 321°
2026-05-05 02:35 34.07856 -119.24579 16934 ft 415 kts 322°
2026-05-05 02:35 34.10216 -119.26582 17351 ft 418 kts 322°
2026-05-05 02:35 34.12587 -119.28594 17761 ft 421 kts 322°
2026-05-05 02:36 34.14983 -119.30630 18164 ft 424 kts 322°
2026-05-05 02:36 34.17409 -119.32706 18547 ft 427 kts 322°
2026-05-05 02:36 34.19853 -119.34803 18942 ft 430 kts 321°
2026-05-05 02:36 34.22256 -119.36872 19337 ft 432 kts 321°
2026-05-05 02:37 34.24702 -119.38983 19733 ft 434 kts 321°
2026-05-05 02:37 34.27190 -119.41137 20134 ft 436 kts 321°
2026-05-05 02:37 34.29647 -119.43263 20542 ft 437 kts 321°
2026-05-05 02:37 34.32106 -119.45396 20922 ft 439 kts 321°
2026-05-05 02:38 34.34607 -119.47562 21317 ft 441 kts 321°
2026-05-05 02:38 34.37071 -119.49748 21653 ft 441 kts 316°
2026-05-05 02:38 34.39093 -119.52468 21901 ft 435 kts 298°